TimeCST,TemperatureF,Dew PointF,Humidity,Sea Level PressureIn,VisibilityMPH,Wind Direction,Wind SpeedMPH,Gust SpeedMPH,PrecipitationIn,Events,Conditions,WindDirDegrees,DateUTC
12:15 AM,44.6,17.6,34,30.11,10.0,SSW,15.0,-,N/A,,Clear,210,2012-11-15 06:15:00
12:35 AM,42.8,17.6,36,30.11,10.0,SSW,13.8,-,N/A,,Clear,210,2012-11-15 06:35:00
12:55 AM,42.8,17.6,36,30.10,10.0,SSW,10.4,-,N/A,,Clear,210,2012-11-15 06:55:00
1:15 AM,41.0,15.8,36,30.10,10.0,SW,10.4,-,N/A,,Clear,220,2012-11-15 07:15:00
1:35 AM,41.0,15.8,36,30.09,10.0,SW,13.8,-,N/A,,Clear,220,2012-11-15 07:35:00
1:55 AM,41.0,15.8,36,30.09,10.0,SW,13.8,-,N/A,,Clear,220,2012-11-15 07:55:00
2:15 AM,41.0,15.8,36,30.09,10.0,SSW,12.7,-,N/A,,Clear,210,2012-11-15 08:15:00
2:55 AM,37.4,15.8,41,30.10,10.0,SW,10.4,-,N/A,,Clear,230,2012-11-15 08:55:00
3:15 AM,37.4,15.8,41,30.11,10.0,WSW,11.5,-,N/A,,Clear,240,2012-11-15 09:15:00
3:35 AM,37.4,15.8,41,30.11,10.0,WSW,12.7,-,N/A,,Clear,240,2012-11-15 09:35:00
3:55 AM,35.6,14.0,41,30.10,10.0,WSW,11.5,-,N/A,,Clear,250,2012-11-15 09:55:00
4:15 AM,37.4,14.0,38,30.10,10.0,WSW,13.8,-,N/A,,Clear,250,2012-11-15 10:15:00
4:35 AM,37.4,14.0,38,30.10,10.0,WSW,13.8,-,N/A,,Clear,240,2012-11-15 10:35:00
4:55 AM,37.4,15.8,41,30.10,10.0,WSW,11.5,-,N/A,,Clear,250,2012-11-15 10:55:00
5:15 AM,37.4,15.8,41,30.11,10.0,West,10.4,-,N/A,,Clear,270,2012-11-15 11:15:00
5:35 AM,37.4,15.8,41,30.12,10.0,West,9.2,-,N/A,,Clear,280,2012-11-15 11:35:00
5:55 AM,35.6,15.8,44,30.14,10.0,WNW,8.1,-,N/A,,Clear,300,2012-11-15 11:55:00
6:15 AM,35.6,15.8,44,30.15,10.0,WNW,9.2,-,N/A,,Clear,300,2012-11-15 12:15:00
6:35 AM,35.6,15.8,44,30.15,10.0,WNW,6.9,-,N/A,,Clear,290,2012-11-15 12:35:00
6:55 AM,35.6,14.0,41,30.16,10.0,NW,10.4,-,N/A,,Clear,310,2012-11-15 12:55:00
7:15 AM,39.2,12.2,33,30.17,10.0,NW,9.2,-,N/A,,Clear,320,2012-11-15 13:15:00
7:35 AM,37.4,12.2,36,30.18,10.0,NW,9.2,-,N/A,,Clear,320,2012-11-15 13:35:00
7:55 AM,37.4,14.0,38,30.19,10.0,NW,10.4,-,N/A,,Clear,320,2012-11-15 13:55:00
8:15 AM,39.2,14.0,36,30.20,10.0,NW,11.5,17.3,N/A,,Clear,320,2012-11-15 14:15:00
8:35 AM,41.0,15.8,36,30.21,10.0,NNW,13.8,-,N/A,,Clear,330,2012-11-15 14:35:00
8:55 AM,41.0,15.8,36,30.21,10.0,NNW,16.1,-,N/A,,Clear,340,2012-11-15 14:55:00
9:15 AM,41.0,17.6,39,30.22,10.0,NNW,20.7,-,N/A,,Clear,340,2012-11-15 15:15:00
9:35 AM,41.0,17.6,39,30.22,10.0,NNW,19.6,26.5,N/A,,Clear,340,2012-11-15 15:35:00
9:55 AM,42.8,19.4,39,30.22,10.0,North,25.3,-,N/A,,Clear,350,2012-11-15 15:55:00
10:15 AM,46.4,19.4,34,30.23,10.0,North,26.5,35.7,N/A,,Clear,360,2012-11-15 16:15:00
10:35 AM,50.0,19.4,30,30.24,10.0,North,29.9,36.8,N/A,,Clear,360,2012-11-15 16:35:00
10:55 AM,50.0,21.2,32,30.24,10.0,North,23.0,36.8,N/A,,Clear,360,2012-11-15 16:55:00
11:15 AM,51.8,23.0,33,30.25,10.0,North,29.9,36.8,N/A,,Clear,360,2012-11-15 17:15:00
11:35 AM,53.6,23.0,30,30.24,10.0,North,24.2,35.7,N/A,,Clear,360,2012-11-15 17:35:00
11:55 AM,53.6,23.0,30,30.24,10.0,North,23.0,33.4,N/A,,Clear,10,2012-11-15 17:55:00
12:15 PM,55.4,23.0,29,30.23,10.0,North,21.9,35.7,N/A,,Clear,10,2012-11-15 18:15:00
12:35 PM,55.4,23.0,29,30.23,10.0,North,26.5,31.1,N/A,,Clear,360,2012-11-15 18:35:00
12:55 PM,57.2,23.0,27,30.22,10.0,NNE,20.7,31.1,N/A,,Clear,20,2012-11-15 18:55:00
1:15 PM,59.0,23.0,25,30.22,10.0,North,23.0,31.1,N/A,,Clear,10,2012-11-15 19:15:00
1:35 PM,59.0,21.2,23,30.22,10.0,North,23.0,31.1,N/A,,Clear,360,2012-11-15 19:35:00
1:55 PM,60.8,21.2,22,30.21,10.0,NNE,20.7,29.9,N/A,,Clear,20,2012-11-15 19:55:00
2:15 PM,59.0,21.2,23,30.21,7.0,North,21.9,31.1,N/A,,Clear,10,2012-11-15 20:15:00
2:35 PM,60.8,23.0,23,30.22,10.0,North,21.9,27.6,N/A,,Clear,10,2012-11-15 20:35:00
2:55 PM,60.8,23.0,23,30.23,10.0,NNE,18.4,28.8,N/A,,Clear,20,2012-11-15 20:55:00
3:15 PM,60.8,23.0,23,30.24,10.0,North,18.4,25.3,N/A,,Clear,360,2012-11-15 21:15:00
3:35 PM,60.8,23.0,23,30.24,10.0,NNE,16.1,25.3,N/A,,Clear,20,2012-11-15 21:35:00
3:55 PM,60.8,23.0,23,30.24,10.0,NNE,17.3,24.2,N/A,,Clear,20,2012-11-15 21:55:00
4:15 PM,59.0,23.0,25,30.24,10.0,North,16.1,21.9,N/A,,Clear,10,2012-11-15 22:15:00
4:35 PM,59.0,23.0,25,30.25,10.0,NNE,18.4,23.0,N/A,,Clear,30,2012-11-15 22:35:00
4:55 PM,57.2,24.8,29,30.26,10.0,NNE,13.8,23.0,N/A,,Clear,20,2012-11-15 22:55:00
5:15 PM,53.6,26.6,35,30.27,10.0,NNE,11.5,-,N/A,,Clear,20,2012-11-15 23:15:00
5:35 PM,51.8,24.8,35,30.27,10.0,NNE,9.2,-,N/A,,Clear,30,2012-11-15 23:35:00
5:55 PM,50.0,24.8,37,30.28,10.0,NNE,8.1,-,N/A,,Clear,30,2012-11-15 23:55:00
6:15 PM,46.4,24.8,43,30.29,10.0,NNE,6.9,-,N/A,,Clear,30,2012-11-16 00:15:00
6:35 PM,44.6,23.0,43,30.30,10.0,NNE,5.8,-,N/A,,Clear,30,2012-11-16 00:35:00
6:55 PM,44.6,23.0,43,30.31,10.0,NE,5.8,-,N/A,,Clear,40,2012-11-16 00:55:00
7:15 PM,44.6,23.0,43,30.32,10.0,NE,5.8,-,N/A,,Clear,40,2012-11-16 01:15:00
7:35 PM,42.8,21.2,42,30.33,10.0,NE,3.5,-,N/A,,Clear,40,2012-11-16 01:35:00
7:55 PM,41.0,21.2,45,30.33,10.0,NNE,4.6,-,N/A,,Clear,30,2012-11-16 01:55:00
8:15 PM,37.4,21.2,52,30.33,10.0,NE,4.6,-,N/A,,Clear,40,2012-11-16 02:15:00
8:35 PM,37.4,21.2,52,30.34,10.0,North,3.5,-,N/A,,Clear,10,2012-11-16 02:35:00
8:55 PM,37.4,21.2,52,30.34,10.0,NNE,3.5,-,N/A,,Clear,30,2012-11-16 02:55:00
9:15 PM,33.8,17.6,52,30.35,10.0,Calm,Calm,-,N/A,,Clear,0,2012-11-16 03:15:00
9:35 PM,35.6,21.2,56,30.35,10.0,NNW,5.8,-,N/A,,Clear,330,2012-11-16 03:35:00
9:55 PM,33.8,19.4,56,30.35,10.0,NNW,4.6,-,N/A,,Clear,340,2012-11-16 03:55:00
10:15 PM,33.8,19.4,56,30.36,10.0,NW,8.1,-,N/A,,Clear,320,2012-11-16 04:15:00
10:35 PM,33.8,19.4,56,30.35,10.0,NNW,6.9,-,N/A,,Clear,330,2012-11-16 04:35:00
10:55 PM,32.0,19.4,60,30.36,10.0,NW,3.5,-,N/A,,Clear,320,2012-11-16 04:55:00
11:15 PM,32.0,19.4,60,30.36,10.0,NNW,8.1,-,N/A,,Clear,340,2012-11-16 05:15:00
11:35 PM,32.0,19.4,60,30.36,10.0,NNW,5.8,-,N/A,,Clear,330,2012-11-16 05:35:00
11:55 PM,32.0,21.2,64,30.37,10.0,WNW,4.6,-,N/A,,Clear,300,2012-11-16 05:55:00